Location: ?????
(38.2579°N, 22.9711°E)
Time: 13:29:35
(UTC+00:00)

Cosmos 2082 - Pass Details

Date: 13 December 2025
Orbit: 831 x 855 km, 71.0° (Epoch: 17 January)

Event Time Altitude Azimuth Distance (km) Brightness Sun altitude
Rises 17:14:12 0° 336° (NNW) 3,425 7.0 -23.9°
Reaches altitude 10° 17:16:40 10° 336° (NNW) 2,488 6.3 -24.4°
Maximum altitude 17:22:24 84° 250° (WSW) 865 3.7 -25.5°
Drops below altitude 10° 17:28:06 10° 162° (SSE) 2,477 6.0 -26.6°
Sets 17:30:32 0° 162° (SSE) 3,409 6.8 -27.1°
